Wind_Speed
57 56 55 55 54 53 53 52 52 52 53 53 54 55 55 55 55 55 55 55 55 55 55 56 56 57 57 58 58 59 59 60 61 61 62 62 63 64 65 66 67 67 68 68 67 66 65 64 62 61 58 57 56 55 57 58 56 52 47 44 42 40 38 37 35 31 31 30 29 28 25 22 21 23 25 26 27 28 30 32 32 32 27 22 19
59 58 57 57 56 55 55 55 55 55 56 56 56 57 57 57 57 57 56 56 56 57 57 57 58 58 59 59 60 60 60 61 62 62 63 64 64 65 66 67 67 68 68 68 67 65 63 61 59 57 56 56 56 57 58 57 54 49 44 42 40 38 38 36 32 31 30 28 26 25 22 20 21 23 25 27 28 30 31 31 31 30 25 20 18
61 60 59 58 57 57 57 57 57 58 58 58 58 59 59 59 58 58 58 58 59 59 60 60 60 60 61 61 61 61 62 62 63 64 64 64 65 66 67 67 68 68 68 67 65 63 61 59 57 56 56 56 56 58 58 55 51 46 43 41 38 38 37 34 31 30 28 26 24 22 20 20 22 23 26 27 29 31 31 30 30 30 23 18 17
64 63 62 61 59 59 60 59 60 60 61 60 60 61 61 60 60 60 60 60 61 62 62 62 62 62 62 62 63 63 63 63 64 64 65 65 66 67 68 68 68 67 66 65 64 61 59 58 56 55 55 56 57 58 56 53 48 43 41 39 38 37 35 32 30 29 26 24 22 20 18 20 22 24 26 28 31 32 31 30 30 29 22 17 16
67 65 64 63 62 62 62 62 62 63 63 63 62 62 62 61 61 62 62 63 64 64 64 64 64 64 64 64 64 64 65 64 65 65 65 66 66 67 68 68 67 66 65 64 62 60 58 56 54 54 55 57 58 56 54 50 45 42 40 40 39 36 33 30 28 27 25 23 21 18 18 20 23 25 27 30 31 31 31 30 29 28 22 17 15
69 68 67 66 66 65 65 65 65 66 66 66 65 64 63 63 63 64 65 66 66 66 66 66 66 66 66 66 65 65 65 65 65 65 66 66 66 66 66 66 65 64 63 62 60 58 56 54 54 55 57 57 56 54 51 47 43 42 41 40 38 34 31 29 26 25 23 21 19 18 19 21 23 25 28 30 31 31 30 29 28 26 22 17 15
70 69 69 68 68 68 68 67 68 68 69 68 67 65 65 65 65 65 66 67 67 67 68 68 67 66 66 66 66 66 66 66 66 66 66 66 66 65 65 64 64 62 61 60 59 58 56 56 56 57 57 56 54 52 49 45 43 42 41 38 34 32 30 27 25 24 22 21 19 18 20 22 25 27 29 29 30 32 30 28 27 24 21 17 15
71 71 71 70 70 69 69 70 70 71 71 70 69 68 67 67 67 67 67 67 67 67 68 67 67 66 66 66 66 66 66 66 66 66 65 65 65 64 63 62 61 60 60 59 58 58 57 57 57 56 55 54 52 49 46 44 42 41 38 34 32 31 29 26 24 22 21 20 19 19 21 24 27 29 29 29 30 31 29 27 24 22 20 17 15
74 73 73 72 71 71 71 71 72 72 72 71 70 69 68 68 67 68 67 67 67 67 67 67 66 66 66 66 66 66 66 66 66 65 64 64 63 63 61 60 59 59 59 58 58 57 57 57 56 55 53 51 50 48 45 43 42 39 35 32 31 30 27 25 23 22 21 20 20 21 23 26 28 28 28 28 30 30 28 26 23 21 20 18 16
76 75 74 73 73 73 73 73 72 72 72 71 70 70 69 68 68 67 67 66 66 66 66 66 66 66 66 66 65 65 65 65 64 64 63 62 62 61 60 59 58 58 58 58 57 57 57 57 55 53 50 48 48 46 43 42 40 35 31 31 30 28 25 23 22 21 21 21 21 23 25 27 28 28 28 28 30 29 27 26 24 21 20 19 17
77 76 75 74 74 75 75 74 73 72 71 70 70 69 68 68 67 66 66 66 66 66 66 65 65 65 65 65 64 64 64 64 63 63 62 61 60 60 59 58 57 57 57 57 56 56 56 56 54 51 48 46 44 44 43 41 36 31 30 30 28 25 23 22 22 22 21 22 23 24 26 27 29 28 28 29 31 30 26 26 25 22 20 19 19
78 77 76 76 76 76 75 74 73 71 70 69 69 68 67 66 65 65 65 65 65 65 65 65 65 64 64 64 63 63 63 63 63 62 61 60 59 59 58 58 57 56 56 56 56 55 55 54 52 49 45 42 41 43 43 38 31 29 29 28 26 23 22 22 22 22 22 23 24 26 27 29 30 29 29 30 32 30 27 26 25 24 21 20 20
77 77 77 76 76 76 75 74 72 71 69 68 68 67 66 65 65 65 65 65 64 64 64 64 64 64 63 63 63 62 62 62 62 62 60 59 58 57 57 56 55 54 54 55 55 54 53 51 49 46 41 39 41 43 40 33 28 28 29 27 23 22 21 22 23 23 23 24 25 26 28 30 31 30 30 30 32 31 28 27 26 24 22 20 21
77 76 76 76 76 75 74 73 71 70 68 67 66 66 66 65 65 65 64 64 64 64 63 63 63 63 63 63 63 63 62 62 61 59 57 56 55 54 55 54 54 53 53 53 53 52 50 48 46 42 39 39 42 41 35 30 27 28 28 25 21 20 21 22 23 24 24 25 26 26 28 31 32 31 30 31 32 31 28 27 25 24 22 21 21
76 76 75 75 75 74 72 71 70 69 67 66 66 66 65 65 65 65 64 64 64 64 63 63 64 64 64 64 64 63 62 60 58 55 54 52 52 53 54 54 53 52 52 52 51 49 48 45 42 40 40 41 41 36 31 28 27 28 27 22 20 20 21 23 24 25 26 26 27 27 29 32 32 32 31 31 33 31 28 26 24 22 22 21 21
76 75 74 74 73 72 71 70 69 68 67 66 66 66 66 66 66 65 65 65 64 64 64 64 64 65 65 64 63 61 58 56 54 51 50 50 52 53 54 54 52 51 50 49 48 47 45 42 39 39 41 41 38 33 29 27 27 29 24 20 19 20 21 23 25 27 27 28 28 28 29 32 33 33 32 33 34 31 28 25 22 20 20 21 20
75 74 73 73 72 71 70 70 69 68 68 68 67 67 67 67 67 67 67 67 66 66 66 65 65 65 64 62 59 56 54 52 50 50 50 52 53 53 52 52 51 49 48 47 46 44 41 38 38 41 42 39 35 31 28 26 27 27 22 19 19 20 21 23 25 27 28 29 29 29 30 32 33 33 33 34 34 31 27 24 21 19 19 20 19
74 73 73 72 72 71 71 70 70 70 69 69 69 68 68 67 67 67 66 66 66 66 66 65 63 61 59 57 53 51 50 50 50 52 54 54 53 52 51 50 49 47 46 45 43 41 38 38 40 41 40 36 32 29 26 25 27 25 22 20 19 20 21 22 24 27 28 29 30 30 32 33 33 33 34 35 33 29 27 24 20 17 17 18 18
73 73 72 72 72 71 71 71 71 71 70 70 70 69 68 68 67 67 66 65 64 63 61 60 58 56 55 52 48 47 48 51 54 55 55 54 52 51 50 49 47 45 44 42 40 38 37 39 41 40 36 33 30 27 24 24 26 25 22 21 20 21 21 23 25 27 28 29 30 32 33 34 34 35 36 34 31 29 27 23 19 17 16 16 16
74 74 73 73 73 73 72 72 72 71 71 70 70 69 69 69 69 68 67 64 60 57 55 54 52 51 50 47 46 48 51 55 56 55 53 52 51 50 49 47 45 43 41 39 37 37 38 40 40 37 33 31 28 25 24 25 26 27 24 22 21 22 23 23 25 27 29 30 31 33 34 35 36 37 35 31 29 29 26 22 19 17 15 15 15
75 75 74 74 74 74 74 73 73 72 72 71 70 70 69 69 69 67 63 58 54 52 52 50 47 47 48 50 53 56 58 56 54 52 51 51 50 48 47 45 43 41 39 37 36 37 39 40 38 34 31 28 26 25 25 26 27 28 26 23 23 24 25 25 27 28 30 31 32 34 35 36 38 36 30 28 29 28 25 21 19 17 15 14 15
76 75 75 75 75 75 75 75 74 74 73 72 72 72 71 69 68 65 61 57 55 55 56 53 51 54 57 60 62 62 59 54 51 51 51 49 47 46 45 43 41 38 36 36 37 39 40 39 35 31 29 27 26 27 28 29 29 29 28 25 24 25 25 27 29 30 31 32 33 35 36 39 37 31 27 28 28 26 23 20 18 17 15 14 14
76 75 75 75 75 76 76 75 75 74 74 73 73 72 71 69 67 65 63 61 60 60 60 59 59 62 63 63 62 59 56 52 51 50 48 45 44 44 43 41 39 36 36 37 39 40 39 36 31 29 27 27 28 30 31 32 31 31 30 26 25 25 26 29 31 32 32 33 34 36 38 39 33 26 26 27 26 24 22 19 17 17 15 13 13
76 76 76 76 76 76 75 75 74 73 72 72 71 70 69 68 67 66 65 63 62 61 62 62 61 61 60 59 57 55 52 51 49 48 46 43 43 44 42 40 37 36 36 37 39 40 36 32 29 27 27 29 31 32 34 34 33 32 30 26 25 26 28 30 32 33 33 34 36 38 39 34 27 25 26 26 24 21 20 18 16 16 14 13 13
74 74 74 74 74 73 72 71 70 69 68 67 66 66 66 65 65 64 63 62 61 60 61 60 60 59 57 55 53 52 50 49 48 47 45 44 44 42 40 39 37 37 37 38 39 36 32 29 28 27 28 31 33 34 35 34 33 30 27 25 25 27 28 30 32 33 35 37 38 39 35 29 25 25 25 25 22 19 18 16 14 14 13 12 12
68 68 68 68 68 67 66 65 64 64 63 62 61 61 61 61 60 60 59 58 58 57 57 57 57 56 54 53 51 49 48 46 45 44 43 42 42 40 39 38 37 37 37 36 35 30 28 28 27 27 29 32 33 33 32 31 29 26 24 24 25 27 28 29 31 35 37 39 38 35 29 25 25 25 25 23 18 17 16 14 13 13 12 11 11
61 62 62 62 62 62 61 61 60 60 59 58 57 56 56 56 55 55 55 54 54 54 54 53 53 52 51 49 48 46 45 43 42 42 41 41 40 39 38 37 36 35 34 32 29 26 26 27 27 27 29 32 31 29 27 27 26 25 25 25 26 27 28 30 32 35 37 37 34 32 29 26 24 24 24 20 16 15 14 13 12 12 10 9 11
58 59 59 59 59 59 59 59 59 57 56 55 54 54 53 53 53 52 52 52 52 51 50 50 49 48 47 46 44 43 42 41 40 40 40 39 37 37 35 34 33 31 30 28 26 25 25 25 26 27 29 29 26 23 24 26 27 27 26 26 26 27 28 29 31 33 33 33 32 33 31 25 23 23 21 16 14 14 13 12 11 10 9 8 10
51 52 54 55 57 59 59 59 58 56 55 54 53 53 52 52 51 51 50 49 49 48 47 47 46 45 44 43 42 41 40 39 39 38 37 35 34 33 32 31 29 28 26 25 24 24 24 25 26 27 27 25 21 21 25 28 28 27 27 26 26 27 26 26 27 28 29 30 30 31 26 21 20 19 16 14 14 13 12 11 10 9 9 8 9
40 42 44 48 52 56 58 59 58 56 54 53 52 51 51 50 50 49 49 48 47 46 46 45 45 44 43 42 41 40 39 38 37 36 34 32 31 30 30 29 27 25 24 24 24 24 24 25 25 26 24 22 20 22 27 29 28 27 27 25 24 23 22 22 23 24 26 27 27 25 19 16 15 13 13 14 14 12 11 10 9 8 8 9 9
38 42 42 44 49 49 51 53 54 55 54 52 51 49 48 48 48 48 47 47 46 46 45 45 44 43 42 41 40 39 38 36 35 34 31 30 30 30 29 28 26 25 25 25 24 24 24 24 25 25 22 20 20 24 27 28 28 26 23 21 20 18 17 18 20 23 25 25 24 19 14 12 10 11 14 14 12 10 10 11 10 9 8 8 8
41 43 42 44 47 42 38 40 44 47 47 46 45 45 45 46 47 47 46 46 46 46 45 44 43 42 41 40 39 38 37 35 34 32 31 30 30 29 28 27 27 27 27 26 25 24 24 25 26 25 21 20 21 25 27 27 25 22 19 18 16 15 15 18 21 23 24 23 20 14 10 10 11 12 14 12 10 11 12 13 11 10 9 8 7
41 38 40 42 38 30 25 26 28 32 36 39 41 44 47 49 49 48 48 47 47 46 45 44 42 42 40 39 39 38 36 35 34 33 32 31 29 29 29 29 29 29 29 27 26 25 26 27 27 24 21 20 22 26 27 25 21 18 17 16 13 13 16 20 21 22 21 18 15 10 8 10 11 12 13 13 14 14 14 13 12 11 10 9 8
41 38 40 41 34 28 26 27 31 36 42 45 47 49 51 52 51 51 50 49 47 46 44 43 42 41 40 39 38 37 36 35 34 34 32 31 30 29 30 31 30 29 29 28 27 28 28 28 26 23 20 20 23 27 26 21 17 15 14 12 11 14 18 19 19 18 16 13 10 6 6 9 9 10 12 14 16 16 15 14 13 12 11 10 9
44 42 42 43 38 33 33 39 46 51 54 54 54 54 53 52 52 51 50 48 47 45 44 43 41 40 39 38 38 37 36 35 34 33 32 31 30 30 31 31 30 29 29 29 29 29 28 27 24 22 21 22 25 26 23 18 15 13 11 10 12 15 17 17 15 14 11 8 6 5 6 8 9 10 11 13 13 14 15 13 11 11 11 11 12
52 50 51 52 49 44 46 53 58 60 60 59 58 57 55 54 52 50 49 47 45 44 43 42 41 40 39 38 37 37 36 35 34 32 31 30 29 28 29 29 28 29 30 30 29 28 27 25 23 22 21 22 25 24 19 16 13 11 9 10 12 14 16 16 12 10 7 3 3 5 6 7 9 9 9 10 11 13 14 13 12 11 11 12 14
61 61 62 63 62 59 61 64 64 64 63 60 57 56 55 55 53 50 48 46 45 44 43 42 41 40 39 38 37 37 35 34 32 31 29 27 26 26 26 27 28 29 28 28 27 26 25 23 23 23 22 23 24 21 17 14 12 10 9 10 12 14 16 14 10 7 5 1 1 4 7 8 10 9 8 11 13 13 13 13 13 13 14 15 15
65 67 67 67 66 64 63 64 65 65 62 58 57 57 57 55 53 50 47 45 44 44 43 42 40 39 39 38 37 36 34 33 31 28 26 25 24 24 25 27 28 27 26 26 26 25 24 23 24 23 22 23 23 19 16 13 11 10 10 11 12 14 14 13 9 6 4 3 4 5 10 9 10 10 10 13 16 15 15 15 16 17 18 19 20
65 65 66 66 63 59 55 52 54 56 55 58 59 58 56 54 52 50 47 45 44 43 42 41 40 39 38 37 36 35 33 31 29 26 24 23 23 24 25 26 27 26 27 27 26 25 24 24 25 23 23 23 21 17 15 13 12 11 11 12 14 14 13 11 8 5 4 3 5 9 13 13 12 12 13 16 18 18 18 19 20 21 21 22 23
63 63 63 63 60 55 48 39 39 46 51 56 58 55 54 52 50 49 46 44 43 42 41 40 39 38 37 36 35 34 32 30 27 25 24 23 23 24 25 26 27 27 27 26 26 25 25 25 25 23 23 23 18 15 14 13 13 12 13 15 16 15 13 10 8 6 4 2 3 8 12 15 15 16 18 21 23 22 21 22 23 24 24 24 24
62 62 62 62 59 54 47 37 35 44 51 54 55 52 51 50 48 46 45 43 42 41 40 39 38 36 36 35 34 33 32 29 27 25 25 24 24 24 25 26 26 27 26 26 25 25 25 25 24 22 23 21 16 14 14 13 13 13 15 17 17 16 14 11 9 6 5 4 2 4 8 12 15 17 20 23 24 24 23 24 24 25 25 24 23
60 60 60 60 58 51 45 40 38 42 48 52 53 50 49 48 46 44 43 42 41 40 39 38 37 36 35 35 34 33 31 29 27 26 25 25 25 25 26 27 27 27 26 26 25 25 24 23 22 22 22 20 16 13 14 14 15 15 17 18 17 17 15 14 12 9 7 6 6 7 8 9 12 15 17 19 21 22 22 23 23 24 24 23 23
57 57 56 56 53 45 43 44 42 42 45 51 52 49 47 46 44 43 42 41 40 39 38 37 36 35 35 34 34 33 31 30 27 26 25 25 26 26 27 27 28 27 26 25 25 24 22 21 21 22 22 20 16 14 15 15 16 17 18 18 18 17 15 14 14 12 10 9 9 10 11 12 12 14 16 18 19 19 20 21 22 23 25 26 27
53 52 51 50 45 39 40 42 41 39 40 46 51 48 46 44 43 42 41 40 39 38 37 36 36 35 34 33 33 32 31 29 28 26 26 26 26 27 28 29 29 28 27 25 24 22 20 20 21 21 21 20 17 16 17 17 18 19 19 19 19 17 15 13 13 12 12 12 12 12 14 16 17 17 18 21 23 25 25 25 26 27 28 29 29
48 48 46 45 41 38 40 40 39 34 30 36 45 45 43 42 41 41 40 39 38 37 36 36 35 34 32 31 30 30 29 28 27 27 27 27 27 28 29 30 30 29 27 25 22 20 19 19 20 20 20 19 18 18 19 19 20 20 20 21 20 18 16 14 13 12 12 12 12 15 18 21 23 22 22 24 27 29 29 29 29 29 29 29 28
45 44 42 40 38 36 37 38 38 36 31 33 40 43 41 40 40 40 39 38 37 37 36 35 34 32 31 29 28 27 27 27 27 27 28 28 29 29 29 29 29 29 27 24 22 20 19 20 20 20 19 19 19 19 20 21 22 22 21 22 21 19 17 16 15 14 13 13 12 13 16 19 22 24 26 28 30 31 31 31 31 31 31 31 31
43 41 38 36 34 33 33 33 33 36 37 37 41 44 41 38 38 39 38 38 37 36 35 34 33 32 30 28 27 27 26 26 27 28 29 29 28 28 28 28 28 27 25 23 21 20 20 20 20 20 19 19 19 19 20 21 22 22 22 22 22 21 19 18 17 17 16 15 15 15 15 15 17 19 22 24 27 30 32 33 33 33 32 32 33
39 37 35 33 32 30 30 30 30 33 37 39 42 44 41 38 38 38 38 38 37 35 34 34 33 32 31 29 28 27 27 27 27 28 29 29 28 28 28 27 26 25 23 22 21 20 20 20 20 19 19 18 18 17 17 19 20 21 22 22 23 23 22 21 21 20 19 18 17 17 16 16 17 17 19 20 22 24 26 28 29 30 30 30 30
36 34 31 30 30 29 28 28 26 27 35 39 39 41 41 39 38 37 37 38 36 35 34 34 33 33 34 33 32 30 29 29 30 30 30 29 29 28 27 25 24 23 22 22 21 21 21 20 19 19 18 17 17 17 17 18 19 20 21 22 24 25 25 24 23 22 21 21 20 19 18 18 18 18 19 20 21 22 22 23 24 26 27 27 27
33 30 28 27 27 27 27 27 24 24 33 38 38 40 40 38 37 36 37 37 35 35 34 34 34 35 36 37 36 35 34 33 33 32 31 29 28 27 25 24 23 23 22 22 22 22 21 20 19 18 17 17 17 17 18 19 19 20 21 23 25 26 27 26 25 24 23 22 21 20 20 19 19 19 20 21 22 22 22 22 22 23 24 25 25
29 27 25 22 23 24 25 26 24 23 30 35 37 39 36 35 36 36 36 36 35 35 35 34 35 35 36 37 37 37 35 34 33 32 30 29 27 26 25 23 23 23 22 22 22 21 20 19 18 17 16 16 17 18 20 21 21 22 23 24 26 27 28 27 26 25 24 24 23 22 22 21 21 21 21 21 22 23 24 24 24 24 24 24 24
Wind_Direction
272 274 275 276 277 277 277 278 278 278 279 279 280 281 282 283 284 286 287 289 290 291 291 292 293 294 294 294 295 296 297 298 299 300 301 302 303 304 305 306 307 308 310 311 312 314 314 315 316 315 316 317 317 316 317 318 318 317 315 313 312 312 313 313 313 313 313 313 313 313 313 313 309 308 310 311 315 320 322 322 323 325 321 317 312
271 273 274 276 277 278 278 278 278 278 278 279 281 282 282 283 284 286 287 288 289 290 291 292 293 293 293 294 295 296 297 298 299 300 301 302 303 304 305 306 307 309 310 311 313 313 314 315 315 315 315 316 316 316 317 317 317 316 313 312 311 311 312 311 311 313 314 314 315 315 314 312 308 309 311 310 313 318 321 322 324 325 321 316 311
271 272 274 275 277 278 278 278 279 279 279 280 281 283 283 284 285 286 288 289 289 290 291 292 292 293 293 294 295 296 297 298 299 300 301 302 303 304 305 306 307 309 310 311 312 313 313 313 313 314 315 315 315 316 316 316 316 314 312 310 310 310 310 309 310 314 315 316 316 316 313 309 307 309 310 310 313 317 321 323 324 324 319 314 309
272 273 274 275 277 278 279 279 280 280 281 281 282 283 284 285 286 287 288 289 289 289 290 290 291 292 293 294 294 295 296 298 299 300 301 302 303 304 304 306 307 309 310 311 312 312 312 313 312 313 314 315 315 316 316 316 316 314 311 310 309 309 307 307 311 315 316 317 317 315 310 306 305 306 308 310 314 319 322 322 322 321 316 310 305
272 273 274 276 277 278 279 280 281 281 282 282 283 284 285 286 287 288 288 288 288 288 289 289 290 292 293 293 294 295 297 298 299 300 300 301 302 303 304 306 307 309 310 311 311 312 312 312 312 313 314 315 315 315 315 315 315 313 310 309 308 306 305 307 312 316 316 317 316 311 306 301 301 303 308 312 317 320 321 319 319 317 312 307 300
272 274 275 276 278 279 280 281 281 282 282 283 284 285 286 287 288 288 288 288 288 288 289 289 290 291 292 293 294 296 297 298 299 299 300 301 302 303 305 306 308 309 310 310 311 311 312 312 312 313 314 314 314 314 315 315 314 312 309 308 306 303 304 308 314 316 315 316 313 306 302 299 299 302 309 314 317 320 320 316 316 314 308 303 296
272 273 274 276 278 279 280 281 282 282 283 284 285 286 287 288 288 288 288 288 288 288 288 289 290 291 292 294 295 296 297 298 298 299 300 301 302 303 305 307 308 309 310 310 311 311 311 311 312 313 314 314 313 313 314 314 313 311 309 307 304 302 304 309 314 315 313 313 309 303 300 299 301 305 311 315 318 321 319 315 315 312 304 299 291
271 273 274 275 277 279 281 281 281 282 283 284 286 287 288 288 288 288 288 288 288 288 289 289 291 292 293 294 295 296 297 297 298 299 301 302 303 303 305 307 308 309 309 310 310 310 310 310 311 313 313 313 312 312 313 313 313 311 308 305 302 302 306 310 314 314 311 311 307 303 300 301 304 309 313 315 321 323 318 315 315 311 302 295 283
270 272 273 274 277 279 280 280 281 281 282 284 285 287 288 288 288 287 288 288 288 288 289 290 291 292 294 295 295 296 297 298 299 300 301 302 303 304 305 307 308 309 309 310 310 310 310 310 311 312 313 312 312 312 312 313 312 310 307 302 301 303 307 311 314 313 310 308 305 302 301 304 308 311 312 316 323 324 318 315 315 310 303 296 282
269 272 273 274 276 279 279 279 280 280 282 283 285 286 287 287 287 288 288 288 288 289 289 290 291 292 293 294 295 296 297 298 299 300 301 302 303 304 306 307 308 309 310 310 310 310 310 310 311 312 312 312 311 311 312 313 312 308 303 301 302 305 308 312 314 312 308 306 303 302 303 307 310 311 311 316 323 323 318 314 311 308 304 298 287
269 271 272 274 276 278 278 278 279 280 281 283 284 285 286 286 286 287 287 288 288 289 290 291 292 292 293 294 294 295 296 297 299 300 301 302 303 304 305 307 308 309 310 310 309 309 309 309 310 311 312 312 312 312 312 312 310 304 301 301 304 306 309 313 313 310 306 304 303 303 306 310 312 311 311 316 321 321 318 313 307 304 303 300 292
268 270 272 273 275 276 277 277 278 279 281 282 284 284 285 285 285 285 286 287 289 290 291 291 292 292 292 293 294 295 296 297 298 299 300 301 302 304 305 307 308 309 309 309 308 308 308 308 309 311 312 312 312 312 312 310 306 301 302 304 306 308 311 313 311 307 304 303 303 305 308 312 314 312 312 316 320 320 317 313 305 300 300 299 294
268 269 270 272 274 275 276 277 278 280 281 282 283 283 284 284 284 285 286 288 289 290 291 291 291 291 292 293 294 295 297 298 299 299 300 301 302 304 305 307 308 309 309 308 308 307 307 308 309 310 311 312 313 312 310 306 301 301 305 306 307 310 312 313 310 306 302 301 303 306 311 315 315 314 314 315 319 320 316 314 307 300 298 297 294
269 269 271 272 274 275 276 277 278 280 281 281 282 282 282 283 284 286 287 288 289 290 290 290 291 291 293 294 295 296 297 298 298 299 300 302 304 306 306 308 309 309 308 307 307 306 306 307 308 309 310 312 314 312 307 301 299 305 307 306 308 311 313 312 310 304 301 301 302 307 314 316 315 314 314 315 319 319 314 313 309 303 299 296 293
269 270 272 273 274 275 276 278 279 279 280 280 281 281 282 284 285 286 287 288 288 289 289 290 291 292 293 294 295 296 296 296 298 299 301 304 306 307 307 307 308 308 307 306 306 306 306 306 307 307 310 313 313 310 303 298 301 309 308 306 309 311 313 312 309 304 301 301 303 307 313 315 314 313 312 313 318 317 311 311 309 306 302 297 294
269 271 272 273 274 275 276 277 278 279 279 280 280 281 283 284 285 286 286 287 287 288 289 290 291 292 293 294 294 294 294 295 297 300 302 305 307 307 306 307 307 307 306 305 305 305 305 305 305 307 311 312 311 307 300 297 305 311 307 304 309 311 312 311 307 303 301 302 302 304 309 312 311 311 310 312 316 313 308 307 305 306 304 299 294
269 270 271 272 273 274 276 277 278 279 279 280 280 282 283 284 285 285 285 286 286 287 288 289 291 292 292 292 292 292 293 295 298 302 304 306 306 306 305 306 307 306 305 305 305 304 304 303 304 308 311 310 308 304 298 298 309 311 304 303 307 310 311 309 306 302 302 302 302 302 305 308 309 308 308 310 312 308 304 302 300 304 304 300 294
270 270 271 272 273 274 275 276 277 278 279 280 281 282 283 284 284 285 285 285 286 287 288 289 290 291 290 289 290 292 294 297 300 302 304 305 305 305 305 305 306 305 304 304 304 302 301 302 306 310 309 307 303 301 297 300 312 312 303 301 303 307 308 306 303 301 300 300 301 302 303 306 306 306 307 309 308 304 302 297 296 300 300 297 291
270 271 272 273 274 274 275 276 277 278 279 280 281 282 282 283 283 284 285 286 287 288 289 289 288 288 288 288 290 293 296 299 301 302 303 304 304 304 305 305 304 304 303 303 302 300 300 304 308 309 306 303 300 300 299 303 313 314 305 299 299 303 305 303 300 298 297 297 299 301 303 304 305 305 306 306 303 301 299 292 292 295 293 290 283
271 271 272 273 274 274 275 276 277 277 278 279 280 281 281 282 282 283 285 287 288 289 290 289 286 286 287 289 292 295 298 299 301 302 302 303 304 304 304 304 303 302 302 301 300 299 300 305 308 307 303 301 300 302 305 306 311 314 309 300 296 299 302 301 297 295 295 295 297 300 302 303 304 306 304 301 299 300 296 288 288 289 286 282 275
271 271 272 273 274 274 275 275 276 277 278 279 279 280 280 281 282 284 285 286 286 287 289 288 286 287 288 291 293 295 298 299 300 301 301 303 303 303 303 303 302 301 301 300 299 299 302 306 308 305 302 302 304 307 310 310 310 313 312 303 296 298 299 298 295 293 293 293 296 300 301 302 304 303 300 297 299 298 291 284 286 286 281 275 269
270 271 272 273 274 274 275 275 276 276 277 278 279 279 280 281 282 282 283 282 283 284 286 285 285 287 288 290 292 294 297 299 299 300 301 302 302 302 302 302 301 300 300 299 299 301 305 307 306 303 303 304 307 310 311 312 310 311 312 305 298 298 296 293 292 291 291 293 296 298 299 301 301 298 295 297 298 294 285 281 285 285 277 270 266
270 271 272 273 273 274 274 275 275 276 277 277 278 279 280 280 281 281 281 281 282 283 283 283 284 286 287 288 290 293 296 297 298 299 301 301 300 301 301 300 300 299 299 299 300 303 306 306 304 303 304 306 309 310 310 310 309 310 311 304 298 297 293 289 289 289 291 293 295 296 298 299 295 291 294 298 296 288 278 277 284 284 275 266 263
270 271 271 272 273 273 274 275 275 276 277 277 278 279 279 279 280 280 281 281 282 282 283 284 285 286 288 289 290 293 295 296 297 298 299 299 299 300 299 298 298 298 299 299 301 305 305 303 303 303 305 308 308 308 307 307 307 308 309 303 297 294 289 287 288 289 292 293 293 295 296 292 286 287 294 296 293 281 272 276 283 282 273 266 263
269 270 271 272 272 273 274 275 276 276 277 277 278 278 278 279 279 280 280 281 281 282 282 284 285 286 288 289 291 292 293 294 296 297 297 297 298 298 296 296 296 298 299 300 303 304 303 301 302 302 305 308 308 306 305 304 305 306 305 299 293 290 289 289 289 289 290 291 292 293 290 282 280 288 294 295 286 271 269 277 282 279 272 265 262
269 270 271 271 272 273 274 275 275 276 276 277 277 278 279 279 279 279 279 280 280 281 282 283 285 286 288 289 290 291 292 293 294 295 295 295 296 295 295 295 297 299 300 301 303 302 301 302 302 302 304 306 307 305 304 303 303 304 302 296 292 291 292 292 289 288 288 290 291 288 282 277 281 287 291 289 273 263 269 275 278 275 268 260 255
270 271 271 272 273 274 274 274 274 274 275 276 277 278 278 279 279 279 279 279 280 281 282 283 284 285 286 288 289 290 291 292 293 293 293 294 294 293 294 296 298 300 302 302 301 300 302 304 304 303 303 304 305 304 304 304 304 304 301 297 295 294 293 292 289 287 287 288 287 282 279 278 281 286 287 278 259 259 267 269 272 271 265 257 248
272 273 273 274 274 273 272 272 272 273 274 275 276 277 277 278 278 279 280 280 281 282 283 284 284 284 285 286 287 288 289 290 291 291 292 292 292 294 295 298 300 302 302 300 299 300 303 304 303 301 301 302 303 304 306 307 305 302 300 297 295 293 293 292 291 289 289 288 284 281 280 278 279 281 277 263 251 258 264 263 266 266 264 258 250
275 275 274 273 271 269 268 268 269 270 271 273 274 275 276 278 279 280 281 282 283 283 283 284 283 284 284 285 286 286 287 288 289 290 290 291 292 294 296 299 302 303 301 299 298 299 300 300 300 300 301 303 302 303 308 308 304 300 298 296 294 293 294 295 295 294 293 289 285 283 282 278 275 273 265 254 253 259 263 260 261 267 265 258 252
270 272 273 274 272 270 268 267 267 267 268 270 273 276 278 279 281 282 283 283 283 283 283 283 283 283 283 283 284 285 285 287 287 287 288 289 291 293 296 300 303 301 300 300 299 298 298 298 299 300 303 303 300 302 306 306 302 299 297 296 295 296 298 299 299 298 296 292 288 285 282 275 269 261 255 257 258 258 259 254 255 266 266 259 253
259 265 269 275 279 276 271 267 266 266 267 270 273 276 279 281 283 283 283 283 283 283 283 283 283 282 282 282 283 283 284 285 285 285 285 287 290 292 296 300 299 297 299 300 299 298 298 300 302 302 303 302 299 302 304 303 301 299 298 298 298 301 305 307 307 306 302 297 290 285 277 266 254 247 253 261 261 258 257 253 252 259 263 259 256
251 260 263 269 276 274 269 266 266 266 267 271 275 278 280 284 285 284 283 283 283 282 282 282 282 281 281 281 282 282 283 283 282 282 283 286 289 292 295 297 294 294 299 300 299 300 300 303 305 303 301 299 300 304 306 304 301 300 300 300 302 307 315 319 318 311 304 296 286 277 263 246 233 240 253 253 248 250 253 255 256 257 257 253 254
242 248 253 260 265 262 261 267 269 270 274 278 281 281 283 286 286 284 284 284 282 282 281 281 281 280 281 281 281 281 281 280 280 280 283 286 287 290 291 293 292 292 297 298 298 300 301 304 305 302 300 298 303 308 308 305 302 302 301 299 304 315 325 327 320 309 302 290 278 269 250 233 225 238 250 246 240 240 246 254 261 263 260 256 261
240 236 242 248 252 251 257 267 273 280 284 286 285 284 284 285 285 284 284 284 282 281 281 280 279 279 279 279 279 279 278 279 279 280 283 285 285 286 288 290 291 292 295 296 297 299 300 303 303 302 300 298 305 310 308 305 303 300 295 293 308 325 331 327 317 309 301 284 270 261 245 233 228 237 247 249 245 240 244 254 263 268 266 262 266
240 237 239 243 246 250 260 270 277 283 287 287 287 286 286 285 285 284 283 283 282 280 279 278 278 278 278 278 277 277 277 278 278 280 283 284 284 285 286 288 289 292 295 296 296 298 300 301 301 303 300 298 306 310 307 303 300 292 282 288 316 331 332 325 317 312 303 284 266 249 242 234 230 236 244 248 246 243 245 252 261 269 273 272 275
243 243 244 246 249 254 264 272 278 282 284 285 285 285 285 286 285 284 283 281 280 279 278 277 277 277 276 275 275 275 276 277 279 281 282 282 283 284 285 286 289 292 295 296 297 298 299 299 299 302 300 300 306 307 303 299 293 280 273 294 320 332 330 324 320 322 316 291 253 243 238 232 230 233 242 248 246 243 245 253 263 273 277 279 280
249 250 252 254 258 262 269 275 278 280 281 282 282 283 284 285 284 283 281 280 278 277 276 276 275 275 274 274 273 274 275 277 279 281 282 282 282 282 283 286 290 294 296 297 298 299 298 295 297 301 300 303 306 303 296 292 283 267 273 302 322 327 328 326 327 339 345 24 143 237 229 228 235 229 233 247 247 247 254 263 270 274 276 277 276
252 255 258 261 264 268 274 278 278 278 279 281 282 283 283 283 282 281 279 278 276 275 274 274 274 273 273 273 273 274 275 277 280 281 281 281 280 281 284 288 291 294 296 297 298 297 295 293 296 299 302 305 304 297 290 285 271 259 274 301 317 321 325 329 335 353 8 76 123 210 218 221 238 234 231 240 246 255 266 270 271 273 272 271 272
252 256 260 263 266 270 276 279 278 278 280 283 284 283 282 281 279 278 277 276 274 273 273 272 272 272 272 272 273 274 275 277 279 280 280 280 281 283 285 288 290 293 295 295 295 294 293 293 294 298 302 304 299 290 285 278 261 258 276 294 306 315 320 328 339 358 14 85 155 204 213 216 226 230 229 232 241 256 265 265 265 266 264 265 268
253 256 259 262 265 269 272 273 276 279 281 283 284 282 281 279 278 277 275 274 272 271 271 270 270 270 271 271 272 273 274 276 277 277 277 279 281 282 283 286 289 291 293 294 293 293 293 293 294 297 301 299 293 284 280 272 258 261 280 290 299 307 311 319 332 350 6 33 179 207 217 223 226 228 232 236 243 253 259 259 258 260 262 266 270
253 256 258 260 263 266 266 262 266 274 279 282 283 282 280 278 276 275 273 272 270 270 269 270 270 269 269 269 270 272 273 273 274 274 275 277 278 279 282 286 289 291 292 293 293 293 293 293 295 297 296 293 286 279 276 269 260 268 284 292 297 301 303 311 320 333 349 346 298 237 227 229 231 234 239 245 249 253 256 257 258 261 265 268 270
252 255 257 259 262 264 263 260 258 264 273 279 281 281 279 277 275 273 271 270 269 269 269 269 269 268 268 268 269 271 271 271 272 273 274 274 275 278 282 287 289 291 292 292 293 292 292 293 295 295 292 288 281 273 271 269 267 274 285 291 297 299 301 308 315 322 334 338 316 285 264 251 245 246 249 253 254 255 256 258 260 263 266 268 269
252 254 256 259 261 262 264 264 259 259 267 275 279 280 278 275 273 272 270 269 268 268 268 268 267 267 267 268 269 270 270 270 270 271 271 272 276 280 284 287 290 291 291 292 293 292 291 292 293 291 288 284 277 268 266 269 272 277 283 289 293 297 302 312 319 322 326 330 322 304 291 281 271 264 262 263 263 262 262 263 264 265 266 268 271
251 253 255 257 258 257 258 260 260 260 265 272 277 279 277 275 273 271 269 268 268 268 268 267 266 267 267 268 269 269 268 268 268 268 268 273 278 282 284 287 289 289 289 291 291 291 290 290 289 287 285 280 273 266 264 269 273 277 282 285 288 293 301 314 321 320 318 317 312 302 294 289 283 277 271 268 267 266 267 267 267 267 268 271 272
250 251 253 255 254 250 250 251 253 253 253 265 275 276 276 274 273 271 269 269 268 267 266 267 267 268 269 269 267 266 267 267 267 266 269 276 281 282 283 285 286 286 286 287 289 290 289 287 285 283 281 277 273 266 263 267 272 277 280 282 284 289 298 309 316 313 308 304 297 287 279 275 272 269 265 261 261 261 263 264 265 265 267 268 268
249 251 252 254 253 249 249 249 252 249 243 253 267 273 275 275 273 272 271 270 268 267 267 268 268 269 268 267 266 265 266 266 265 266 271 278 282 282 282 282 283 283 283 284 287 288 287 285 284 281 278 276 274 269 264 266 270 276 279 279 280 285 294 304 309 308 302 295 289 283 275 268 263 260 256 254 254 256 258 260 261 261 262 263 262
249 250 251 252 252 250 249 249 252 253 249 248 257 267 274 275 275 274 273 270 268 267 268 268 268 268 267 266 265 265 265 266 266 269 274 279 280 280 280 280 279 279 280 281 284 286 284 283 282 280 277 276 274 271 267 266 270 275 276 276 277 283 292 299 303 303 298 290 284 281 278 275 272 270 266 261 259 259 261 263 265 266 267 267 266
248 248 248 249 250 250 249 248 248 253 256 254 256 265 272 275 277 276 274 271 269 268 268 268 267 265 264 264 264 264 264 266 268 272 275 277 278 278 277 276 275 275 276 278 281 282 282 282 281 278 276 275 274 273 270 269 272 274 273 273 275 280 289 297 300 299 296 290 285 282 279 276 277 279 280 278 274 271 270 271 272 273 274 274 273
247 245 245 247 250 251 251 251 250 252 260 263 264 268 273 276 277 276 274 273 272 271 269 268 266 264 263 263 263 264 265 266 269 273 275 275 275 274 272 271 271 272 273 275 278 278 279 279 278 276 275 274 274 275 274 273 274 274 272 271 273 279 288 295 298 297 294 290 287 284 282 278 277 278 281 282 282 281 279 277 277 276 277 277 277
245 243 244 247 252 256 257 258 255 249 257 265 268 270 274 276 276 276 276 275 274 272 270 268 267 264 263 263 264 266 267 268 270 273 273 272 270 268 266 266 267 270 272 273 274 275 275 276 275 275 274 273 275 277 277 276 275 273 271 270 272 279 287 293 295 295 293 291 287 285 283 281 279 279 281 282 283 283 284 283 282 281 280 280 280
242 241 242 249 259 266 268 269 266 257 258 264 268 272 273 272 275 279 279 277 275 272 271 269 267 265 264 264 265 266 267 268 270 271 269 267 264 261 261 263 265 269 271 272 272 273 274 276 277 276 276 277 279 278 277 276 275 274 272 272 274 280 287 291 293 294 292 290 288 286 285 284 281 279 280 281 282 282 282 283 283 282 282 282 282
Height
10891 10892 10892 10892 10894 10895 10895 10895 10895 10894 10894 10892 10891 10891 10891 10890 10890 10889 10889 10889 10888 10886 10885 10884 10883 10882 10882 10881 10881 10880 10879 10878 10876 10875 10874 10873 10871 10869 10867 10865 10864 10862 10860 10858 10857 10855 10853 10851 10848 10845 10842 10839 10837 10834 10832 10829 10827 10824 10822 10820 10818 10816 10814 10812 10810 10808 10806 10804 10802 10800 10798 10797 10796 10796 10795 10794 10793 10792 10790 10788 10786 10784 10782 10780 10779
10887 10888 10888 10889 10890 10891 10891 10890 10890 10889 10889 10889 10888 10887 10887 10887 10887 10886 10886 10886 10884 10882 10880 10879 10878 10878 10878 10877 10876 10876 10875 10873 10872 10871 10870 10869 10867 10865 10863 10861 10860 10858 10856 10854 10852 10851 10849 10847 10844 10841 10838 10836 10833 10830 10828 10825 10823 10820 10818 10816 10814 10812 10810 10808 10806 10804 10803 10801 10799 10797 10796 10795 10794 10793 10792 10791 10790 10788 10787 10786 10784 10781 10780 10779 10778
10883 10884 10884 10885 10886 10886 10886 10885 10885 10884 10884 10885 10885 10884 10883 10883 10883 10883 10883 10882 10880 10877 10876 10875 10874 10874 10874 10873 10872 10871 10870 10870 10868 10867 10866 10865 10863 10861 10859 10857 10856 10854 10852 10850 10848 10846 10845 10843 10840 10838 10834 10831 10829 10826 10823 10821 10819 10817 10814 10812 10810 10809 10807 10805 10803 10801 10799 10798 10796 10795 10794 10793 10792 10791 10789 10788 10787 10785 10784 10783 10781 10779 10778 10777 10776
10879 10880 10881 10881 10882 10881 10881 10881 10880 10879 10879 10880 10881 10880 10880 10880 10880 10880 10879 10878 10875 10873 10872 10871 10870 10870 10869 10869 10868 10867 10866 10866 10864 10863 10862 10861 10859 10857 10855 10853 10852 10850 10848 10846 10844 10842 10840 10839 10837 10834 10830 10827 10825 10822 10819 10817 10815 10813 10811 10809 10807 10805 10804 10802 10799 10798 10796 10795 10794 10792 10791 10790 10789 10788 10787 10785 10784 10782 10781 10779 10778 10777 10776 10775 10774
10874 10875 10876 10876 10876 10876 10876 10876 10876 10874 10874 10875 10876 10876 10877 10877 10877 10876 10875 10873 10871 10869 10868 10866 10866 10866 10865 10864 10863 10862 10862 10861 10860 10859 10858 10857 10856 10854 10851 10849 10848 10846 10844 10842 10839 10838 10836 10834 10832 10830 10827 10823 10820 10818 10815 10813 10812 10810 10808 10806 10804 10802 10800 10799 10796 10795 10793 10792 10791 10790 10789 10788 10787 10786 10784 10783 10781 10779 10778 10776 10775 10774 10773 10773 10772
10869 10870 10870 10871 10871 10871 10871 10871 10870 10869 10869 10870 10871 10873 10873 10873 10873 10872 10870 10867 10866 10865 10864 10862 10862 10861 10860 10859 10858 10857 10857 10856 10856 10855 10854 10853 10851 10850 10848 10845 10843 10842 10840 10837 10835 10833 10831 10830 10828 10826 10823 10819 10816 10813 10811 10810 10808 10806 10804 10803 10800 10799 10797 10796 10794 10792 10790 10789 10788 10787 10786 10786 10785 10784 10782 10781 10779 10777 10775 10773 10772 10771 10771 10770 10770
10864 10865 10865 10865 10865 10866 10866 10866 10865 10864 10863 10864 10866 10868 10869 10869 10868 10866 10864 10862 10862 10860 10859 10858 10857 10857 10856 10854 10853 10852 10851 10851 10851 10850 10849 10848 10847 10846 10844 10842 10839 10837 10836 10833 10831 10828 10827 10825 10824 10822 10819 10814 10811 10810 10808 10806 10804 10802 10801 10799 10797 10795 10794 10792 10791 10789 10787 10786 10785 10785 10784 10783 10782 10781 10780 10778 10776 10774 10772 10770 10769 10768 10768 10768 10768
10860 10860 10860 10860 10861 10862 10862 10861 10860 10859 10858 10860 10862 10863 10863 10863 10862 10860 10858 10858 10857 10855 10854 10853 10853 10852 10851 10850 10849 10848 10847 10846 10846 10846 10845 10844 10843 10841 10840 10838 10835 10833 10831 10829 10826 10824 10822 10820 10819 10818 10815 10811 10807 10806 10804 10802 10800 10798 10797 10795 10794 10792 10790 10789 10788 10786 10785 10784 10783 10782 10781 10780 10779 10778 10777 10775 10774 10771 10770 10768 10767 10766 10766 10766 10766
10854 10855 10855 10856 10857 10858 10858 10857 10856 10855 10854 10855 10857 10857 10858 10857 10856 10854 10854 10853 10852 10851 10850 10849 10849 10848 10847 10846 10844 10843 10842 10842 10842 10841 10841 10840 10838 10837 10836 10834 10832 10829 10827 10825 10822 10819 10817 10815 10814 10814 10811 10807 10803 10802 10801 10799 10797 10795 10793 10792 10790 10789 10787 10786 10785 10784 10782 10781 10780 10779 10779 10778 10777 10776 10774 10773 10771 10769 10767 10766 10765 10764 10764 10763 10764
10849 10850 10851 10852 10853 10853 10853 10852 10852 10851 10851 10852 10853 10853 10852 10851 10850 10849 10848 10847 10846 10846 10845 10845 10845 10844 10843 10841 10840 10839 10838 10838 10838 10837 10837 10836 10834 10833 10831 10830 10828 10826 10823 10821 10818 10815 10812 10810 10810 10809 10808 10804 10800 10798 10797 10796 10793 10791 10790 10788 10787 10785 10784 10783 10782 10781 10780 10779 10778 10777 10776 10775 10774 10773 10772 10770 10769 10767 10765 10764 10763 10762 10761 10761 10761
10844 10845 10846 10848 10848 10848 10848 10847 10847 10848 10848 10848 10849 10848 10847 10846 10844 10843 10842 10842 10841 10841 10841 10840 10839 10839 10838 10837 10836 10835 10835 10834 10833 10833 10833 10832 10830 10829 10827 10826 10824 10822 10819 10816 10813 10810 10808 10806 10805 10805 10804 10802 10797 10794 10793 10792 10790 10788 10787 10785 10783 10782 10781 10780 10779 10778 10777 10776 10776 10775 10774 10773 10772 10771 10769 10768 10766 10765 10763 10762 10761 10760 10759 10759 10758
10840 10841 10842 10843 10843 10842 10842 10843 10843 10844 10845 10845 10844 10843 10842 10840 10839 10838 10837 10837 10837 10836 10836 10835 10834 10834 10833 10833 10832 10832 10831 10830 10829 10829 10829 10828 10827 10825 10823 10822 10821 10819 10816 10812 10809 10806 10803 10801 10800 10800 10800 10799 10795 10791 10789 10788 10787 10785 10783 10782 10780 10779 10778 10777 10776 10775 10774 10774 10773 10772 10771 10770 10769 10768 10766 10765 10763 10762 10761 10760 10758 10757 10756 10756 10756
10835 10836 10837 10838 10838 10837 10838 10838 10839 10840 10841 10841 10839 10837 10836 10835 10834 10833 10833 10833 10832 10832 10831 10830 10829 10829 10828 10828 10828 10827 10827 10826 10825 10824 10824 10824 10823 10821 10819 10818 10817 10815 10812 10808 10805 10802 10799 10797 10795 10795 10796 10795 10792 10788 10785 10784 10784 10782 10780 10779 10777 10776 10775 10774 10773 10773 10772 10771 10770 10770 10769 10768 10766 10765 10764 10762 10761 10759 10758 10757 10756 10755 10754 10753 10753
10829 10831 10832 10832 10832 10832 10833 10834 10835 10836 10835 10835 10833 10831 10830 10830 10829 10829 10829 10829 10828 10827 10826 10825 10824 10824 10824 10824 10823 10822 10822 10821 10820 10820 10820 10820 10819 10817 10815 10814 10813 10811 10808 10804 10801 10798 10795 10793 10791 10790 10791 10791 10789 10785 10782 10780 10780 10779 10777 10775 10775 10773 10772 10771 10771 10770 10769 10769 10768 10767 10766 10765 10763 10762 10761 10760 10758 10757 10755 10754 10753 10752 10751 10750 10750
10824 10826 10827 10827 10827 10827 10828 10829 10829 10829 10829 10828 10827 10826 10826 10825 10825 10825 10824 10824 10823 10822 10821 10820 10820 10820 10820 10819 10818 10817 10817 10816 10816 10815 10815 10816 10816 10813 10811 10810 10809 10807 10804 10800 10797 10794 10791 10789 10787 10786 10786 10787 10785 10782 10779 10777 10776 10776 10774 10773 10772 10771 10770 10769 10768 10768 10767 10766 10765 10764 10763 10762 10760 10759 10758 10757 10756 10754 10752 10751 10750 10749 10749 10748 10747
10819 10821 10821 10822 10822 10823 10823 10822 10823 10823 10823 10822 10821 10821 10821 10821 10820 10820 10819 10819 10818 10817 10817 10816 10816 10816 10815 10814 10813 10812 10812 10811 10811 10811 10811 10812 10811 10809 10807 10806 10805 10804 10800 10796 10793 10790 10787 10785 10784 10782 10782 10782 10782 10780 10777 10775 10773 10772 10771 10770 10769 10768 10768 10767 10766 10765 10764 10764 10763 10762 10761 10759 10758 10756 10755 10754 10753 10751 10750 10748 10747 10747 10746 10746 10745
10814 10815 10816 10816 10816 10817 10817 10817 10817 10817 10816 10816 10816 10816 10816 10816 10815 10815 10814 10814 10813 10813 10813 10812 10812 10812 10811 10809 10809 10808 10807 10807 10807 10807 10806 10807 10807 10806 10803 10802 10801 10800 10796 10793 10789 10786 10783 10782 10780 10779 10778 10777 10778 10777 10775 10773 10771 10769 10768 10767 10767 10766 10765 10765 10764 10763 10762 10761 10760 10759 10758 10757 10755 10754 10752 10751 10750 10748 10747 10745 10745 10744 10744 10743 10743
10808 10809 10810 10810 10811 10811 10811 10811 10811 10811 10810 10810 10811 10811 10811 10810 10810 10809 10809 10809 10809 10809 10809 10809 10808 10807 10806 10805 10805 10804 10803 10802 10802 10802 10801 10802 10802 10801 10800 10798 10797 10795 10792 10789 10786 10783 10780 10778 10776 10775 10774 10773 10773 10774 10773 10770 10768 10767 10765 10765 10764 10764 10763 10762 10761 10760 10760 10758 10757 10756 10755 10754 10752 10751 10749 10748 10747 10745 10744 10743 10742 10741 10741 10741 10741
10801 10802 10803 10803 10804 10805 10805 10805 10805 10804 10804 10805 10805 10805 10805 10805 10804 10804 10804 10804 10804 10804 10804 10804 10804 10803 10801 10801 10801 10800 10799 10798 10797 10797 10796 10796 10796 10796 10796 10795 10793 10791 10789 10786 10783 10780 10777 10774 10773 10771 10770 10769 10769 10770 10770 10768 10766 10764 10763 10762 10761 10761 10760 10759 10758 10758 10757 10756 10754 10753 10752 10751 10749 10748 10746 10745 10744 10742 10741 10740 10739 10739 10739 10738 10739
10794 10795 10796 10797 10797 10798 10798 10798 10798 10798 10798 10799 10799 10800 10799 10799 10798 10798 10799 10800 10800 10800 10800 10800 10799 10798 10797 10797 10797 10796 10795 10794 10793 10792 10791 10791 10791 10791 10791 10791 10789 10787 10785 10783 10780 10777 10774 10771 10769 10768 10767 10766 10765 10766 10766 10766 10764 10762 10761 10760 10759 10758 10757 10757 10756 10755 10754 10752 10751 10750 10749 10747 10746 10745 10743 10742 10741 10739 10738 10737 10737 10736 10736 10736 10736
10788 10789 10790 10790 10791 10791 10791 10791 10792 10792 10793 10793 10793 10793 10793 10793 10792 10793 10794 10795 10795 10796 10797 10796 10795 10795 10794 10793 10793 10791 10790 10789 10788 10787 10786 10786 10786 10786 10786 10786 10785 10783 10781 10779 10776 10773 10771 10768 10766 10764 10763 10762 10761 10762 10762 10762 10762 10760 10759 10757 10756 10755 10754 10754 10753 10752 10751 10749 10748 10747 10745 10744 10743 10741 10740 10739 10738 10736 10735 10735 10734 10734 10734 10734 10734
10782 10783 10783 10783 10784 10783 10784 10784 10785 10786 10786 10787 10787 10786 10787 10787 10787 10788 10789 10790 10790 10791 10793 10792 10791 10791 10790 10789 10788 10787 10786 10784 10783 10782 10781 10781 10781 10781 10781 10781 10780 10779 10777 10775 10773 10770 10767 10765 10763 10761 10759 10758 10758 10757 10758 10758 10758 10758 10757 10755 10753 10752 10751 10750 10750 10749 10748 10747 10745 10744 10742 10741 10739 10738 10737 10736 10735 10734 10733 10732 10732 10732 10732 10732 10732
10776 10776 10776 10776 10776 10776 10777 10777 10778 10779 10780 10781 10781 10780 10781 10781 10782 10783 10784 10785 10786 10787 10787 10787 10786 10786 10785 10784 10783 10782 10781 10780 10778 10777 10777 10777 10776 10776 10775 10776 10776 10775 10773 10771 10769 10767 10764 10762 10760 10758 10756 10755 10754 10754 10754 10754 10754 10754 10754 10752 10751 10749 10748 10747 10746 10745 10744 10743 10742 10740 10739 10737 10736 10735 10734 10733 10731 10731 10730 10730 10730 10730 10730 10730 10730
10770 10770 10770 10769 10769 10769 10770 10771 10772 10773 10774 10774 10775 10775 10775 10776 10777 10778 10779 10780 10781 10781 10782 10782 10781 10780 10780 10779 10778 10777 10776 10775 10774 10773 10773 10772 10771 10771 10771 10770 10770 10770 10769 10767 10765 10763 10761 10759 10757 10755 10753 10752 10751 10750 10750 10750 10750 10750 10750 10749 10748 10746 10745 10744 10743 10741 10740 10739 10738 10737 10735 10733 10732 10731 10730 10729 10728 10728 10727 10727 10727 10727 10728 10728 10728
10763 10762 10762 10762 10761 10762 10763 10764 10765 10766 10767 10768 10769 10770 10770 10771 10772 10773 10774 10775 10776 10776 10776 10776 10776 10775 10774 10773 10773 10772 10771 10770 10770 10769 10768 10768 10767 10766 10766 10765 10765 10765 10765 10764 10762 10760 10758 10756 10755 10753 10751 10749 10748 10747 10746 10746 10746 10747 10746 10745 10744 10743 10742 10741 10740 10738 10736 10735 10734 10732 10731 10730 10729 10728 10727 10726 10725 10725 10725 10725 10725 10725 10725 10726 10726
10756 10755 10754 10754 10754 10756 10757 10758 10759 10760 10761 10762 10763 10765 10766 10766 10767 10767 10769 10770 10770 10771 10771 10771 10771 10770 10769 10768 10768 10767 10767 10766 10766 10765 10764 10764 10763 10762 10761 10760 10760 10760 10760 10759 10758 10756 10755 10753 10752 10750 10749 10747 10745 10744 10743 10742 10742 10743 10743 10742 10741 10740 10739 10738 10736 10734 10732 10731 10730 10728 10727 10726 10725 10724 10724 10723 10723 10722 10723 10723 10723 10723 10723 10724 10725
10749 10748 10747 10747 10748 10749 10750 10751 10752 10753 10755 10757 10758 10760 10761 10761 10761 10762 10763 10765 10765 10765 10766 10766 10766 10765 10764 10763 10763 10763 10763 10763 10762 10762 10760 10760 10759 10757 10756 10756 10756 10755 10755 10754 10754 10753 10752 10750 10749 10748 10747 10745 10743 10741 10740 10739 10739 10739 10739 10738 10737 10736 10735 10734 10732 10731 10729 10727 10725 10723 10723 10723 10722 10721 10720 10720 10720 10720 10720 10720 10721 10721 10721 10722 10724
10742 10741 10740 10740 10741 10742 10743 10744 10745 10747 10749 10752 10753 10754 10756 10756 10756 10758 10759 10760 10760 10761 10761 10761 10761 10760 10759 10759 10759 10759 10759 10759 10758 10758 10756 10756 10754 10753 10752 10752 10751 10751 10751 10750 10750 10749 10748 10747 10746 10746 10744 10743 10741 10739 10738 10737 10736 10735 10735 10734 10733 10732 10731 10729 10728 10727 10725 10723 10721 10719 10718 10719 10719 10718 10718 10718 10718 10718 10718 10718 10719 10719 10720 10721 10723
10734 10733 10732 10733 10734 10734 10736 10737 10739 10742 10744 10746 10748 10749 10751 10751 10752 10753 10754 10755 10756 10756 10756 10756 10756 10755 10755 10755 10755 10755 10755 10755 10754 10753 10752 10752 10751 10749 10748 10748 10747 10747 10747 10747 10746 10746 10746 10745 10744 10743 10742 10740 10739 10737 10735 10734 10732 10732 10731 10731 10730 10728 10727 10726 10724 10723 10721 10719 10716 10714 10714 10715 10715 10715 10715 10715 10716 10716 10716 10716 10717 10718 10719 10720 10721
10728 10724 10724 10726 10727 10728 10729 10732 10735 10737 10738 10740 10743 10745 10746 10747 10748 10750 10750 10751 10751 10751 10751 10751 10751 10751 10751 10750 10750 10751 10751 10751 10750 10749 10748 10748 10747 10746 10745 10744 10744 10743 10743 10743 10743 10743 10743 10742 10741 10740 10739 10738 10736 10735 10733 10731 10729 10728 10727 10727 10726 10725 10724 10723 10721 10720 10718 10715 10712 10711 10711 10712 10712 10713 10713 10713 10714 10714 10714 10715 10715 10716 10718 10719 10720
10724 10719 10718 10720 10721 10723 10724 10727 10729 10731 10734 10737 10739 10741 10742 10743 10744 10746 10746 10747 10747 10747 10746 10747 10747 10746 10746 10746 10746 10746 10746 10747 10746 10745 10745 10744 10743 10742 10741 10740 10740 10740 10739 10739 10740 10740 10739 10739 10738 10737 10736 10735 10734 10732 10730 10728 10726 10725 10724 10723 10723 10722 10721 10720 10719 10717 10715 10712 10709 10708 10708 10709 10710 10711 10711 10712 10712 10713 10713 10713 10714 10715 10717 10718 10719
10720 10717 10715 10716 10717 10719 10720 10722 10724 10727 10731 10734 10736 10737 10738 10739 10740 10741 10742 10742 10742 10742 10742 10742 10742 10742 10742 10742 10742 10742 10742 10743 10742 10741 10741 10740 10739 10738 10737 10737 10737 10737 10736 10736 10736 10736 10736 10735 10735 10734 10733 10732 10731 10729 10727 10725 10723 10722 10721 10720 10720 10720 10719 10718 10716 10714 10712 10709 10707 10706 10706 10706 10707 10708 10709 10710 10711 10711 10712 10712 10713 10715 10716 10717 10718
10714 10714 10712 10712 10714 10715 10716 10718 10721 10725 10729 10731 10732 10733 10734 10735 10736 10737 10738 10738 10738 10737 10737 10737 10737 10737 10738 10738 10738 10738 10738 10738 10738 10737 10737 10736 10735 10734 10733 10733 10733 10733 10733 10732 10732 10732 10732 10732 10731 10731 10730 10729 10727 10726 10724 10723 10721 10720 10719 10718 10718 10718 10717 10715 10713 10711 10709 10706 10705 10704 10704 10705 10706 10707 10707 10708 10709 10709 10710 10711 10712 10713 10715 10716 10717
10709 10709 10708 10708 10710 10711 10712 10715 10719 10722 10725 10726 10728 10728 10729 10730 10731 10732 10733 10733 10732 10732 10732 10732 10732 10733 10733 10733 10733 10733 10733 10734 10734 10733 10733 10732 10732 10731 10730 10729 10729 10729 10729 10729 10728 10728 10728 10728 10728 10727 10727 10725 10724 10723 10721 10720 10719 10718 10717 10717 10716 10715 10714 10713 10711 10708 10706 10704 10703 10703 10703 10704 10705 10706 10706 10706 10707 10707 10708 10710 10711 10712 10713 10714 10715
10706 10706 10704 10703 10705 10707 10710 10712 10715 10718 10720 10721 10722 10723 10723 10725 10726 10727 10727 10728 10727 10727 10727 10727 10728 10728 10729 10729 10729 10729 10729 10730 10730 10729 10729 10729 10728 10728 10727 10726 10726 10725 10725 10725 10725 10725 10725 10725 10724 10724 10723 10722 10721 10719 10718 10717 10716 10716 10715 10715 10714 10713 10712 10710 10708 10706 10704 10703 10702 10702 10703 10703 10704 10704 10705 10705 10706 10706 10707 10709 10710 10711 10712 10712 10713
10701 10702 10700 10697 10700 10706 10710 10711 10713 10714 10716 10718 10718 10718 10718 10719 10720 10721 10722 10722 10722 10722 10722 10722 10723 10724 10724 10724 10724 10725 10725 10725 10726 10725 10726 10726 10725 10725 10724 10723 10722 10722 10722 10721 10721 10721 10721 10721 10721 10721 10720 10719 10718 10716 10715 10714 10714 10714 10713 10713 10712 10711 10710 10708 10706 10704 10703 10702 10701 10701 10702 10703 10703 10703 10703 10704 10705 10706 10707 10708 10709 10709 10710 10710 10711
10695 10695 10694 10695 10699 10705 10709 10710 10711 10711 10713 10715 10715 10714 10715 10715 10715 10716 10717 10717 10717 10717 10717 10718 10719 10719 10720 10720 10720 10720 10721 10721 10722 10722 10722 10722 10722 10722 10721 10720 10719 10719 10718 10718 10718 10718 10718 10718 10718 10718 10717 10716 10715 10714 10713 10712 10712 10711 10711 10711 10710 10709 10708 10707 10705 10703 10701 10701 10701 10701 10701 10702 10702 10702 10703 10703 10703 10705 10706 10706 10707 10707 10708 10708 10709
10689 10689 10691 10694 10699 10705 10710 10710 10708 10708 10709 10710 10710 10710 10711 10711 10711 10711 10712 10712 10712 10712 10713 10714 10714 10715 10715 10715 10716 10716 10717 10718 10718 10718 10718 10719 10719 10719 10718 10717 10716 10716 10715 10715 10715 10715 10715 10715 10714 10714 10714 10713 10712 10711 10710 10710 10709 10709 10709 10709 10708 10707 10707 10705 10704 10702 10700 10700 10701 10701 10700 10700 10701 10701 10702 10702 10702 10703 10704 10705 10705 10705 10705 10706 10706
10685 10687 10689 10692 10698 10707 10713 10711 10706 10705 10705 10705 10705 10706 10707 10707 10707 10707 10708 10708 10708 10708 10708 10709 10710 10711 10711 10711 10712 10712 10713 10714 10714 10715 10715 10716 10716 10716 10715 10714 10714 10713 10712 10712 10712 10712 10712 10711 10711 10711 10710 10710 10709 10708 10707 10707 10707 10707 10707 10707 10706 10706 10705 10704 10702 10701 10700 10699 10699 10698 10698 10699 10699 10700 10701 10701 10701 10702 10702 10703 10702 10703 10703 10704 10704
10682 10686 10688 10691 10698 10709 10716 10713 10705 10701 10700 10700 10700 10702 10703 10703 10702 10703 10703 10703 10703 10704 10704 10705 10706 10707 10707 10707 10708 10708 10709 10710 10711 10711 10712 10712 10713 10713 10712 10711 10711 10710 10710 10709 10709 10709 10709 10708 10708 10708 10707 10707 10706 10706 10705 10705 10705 10705 10705 10704 10704 10704 10704 10703 10701 10700 10699 10698 10697 10696 10696 10697 10698 10698 10698 10698 10699 10700 10700 10700 10700 10700 10700 10701 10701
10680 10683 10687 10690 10697 10707 10711 10712 10708 10699 10695 10697 10697 10698 10699 10699 10698 10699 10699 10698 10699 10700 10700 10701 10702 10703 10703 10703 10704 10705 10706 10707 10707 10708 10709 10709 10709 10709 10708 10708 10708 10707 10707 10706 10706 10706 10706 10705 10705 10705 10704 10704 10704 10703 10703 10703 10702 10702 10702 10702 10702 10702 10701 10701 10700 10698 10697 10696 10696 10695 10694 10695 10696 10696 10696 10696 10696 10697 10698 10697 10697 10697 10697 10698 10698
10678 10680 10684 10688 10695 10703 10704 10707 10708 10699 10693 10694 10694 10694 10695 10694 10694 10694 10694 10694 10695 10696 10697 10698 10698 10699 10699 10699 10700 10701 10702 10703 10704 10704 10705 10706 10706 10705 10705 10705 10705 10704 10704 10703 10703 10703 10703 10702 10702 10702 10702 10701 10701 10701 10701 10700 10700 10700 10700 10700 10699 10699 10698 10698 10697 10696 10695 10695 10694 10693 10692 10693 10693 10693 10693 10693 10694 10694 10695 10695 10695 10694 10695 10695 10696
10674 10677 10680 10685 10693 10701 10699 10699 10703 10698 10692 10691 10691 10691 10691 10691 10691 10690 10690 10690 10691 10692 10693 10694 10694 10694 10695 10696 10697 10697 10698 10699 10700 10701 10701 10702 10702 10702 10702 10701 10701 10701 10700 10700 10700 10700 10700 10700 10699 10699 10699 10699 10698 10698 10698 10698 10698 10697 10697 10697 10697 10696 10695 10695 10694 10693 10692 10692 10691 10690 10690 10690 10690 10690 10690 10690 10690 10691 10691 10692 10692 10692 10692 10692 10692
10670 10672 10676 10680 10690 10698 10695 10691 10694 10694 10690 10688 10687 10687 10687 10687 10687 10686 10686 10686 10687 10688 10689 10689 10689 10690 10691 10692 10693 10694 10695 10695 10696 10697 10698 10698 10698 10698 10698 10698 10697 10697 10697 10697 10697 10697 10697 10697 10697 10697 10696 10696 10696 10695 10695 10695 10695 10695 10695 10695 10694 10693 10692 10691 10691 10690 10689 10689 10688 10687 10687 10687 10687 10687 10687 10687 10687 10687 10687 10688 10688 10688 10688 10688 10688
10665 10668 10671 10675 10683 10690 10689 10686 10688 10689 10688 10685 10682 10683 10682 10683 10683 10682 10682 10683 10684 10684 10684 10685 10686 10687 10688 10688 10689 10690 10691 10692 10693 10693 10694 10694 10694 10694 10694 10694 10693 10693 10694 10694 10694 10695 10695 10695 10694 10694 10693 10693 10693 10692 10692 10692 10692 10692 10692 10692 10692 10691 10690 10689 10688 10687 10686 10686 10685 10685 10684 10684 10684 10684 10684 10684 10684 10684 10684 10684 10684 10685 10685 10685 10685
10660 10663 10667 10670 10676 10682 10683 10683 10684 10686 10685 10680 10676 10677 10678 10678 10678 10678 10679 10679 10679 10680 10680 10681 10682 10683 10684 10684 10685 10686 10687 10688 10689 10689 10690 10690 10690 10690 10690 10690 10690 10689 10690 10691 10691 10692 10692 10692 10691 10691 10690 10690 10689 10689 10689 10689 10689 10689 10689 10689 10689 10688 10688 10687 10686 10685 10684 10683 10683 10682 10682 10682 10681 10681 10681 10681 10681 10681 10681 10681 10681 10682 10682 10682 10681
10656 10659 10662 10665 10669 10674 10677 10679 10681 10681 10679 10676 10672 10671 10672 10673 10674 10675 10675 10675 10675 10676 10677 10678 10679 10680 10680 10681 10681 10682 10683 10684 10685 10686 10686 10686 10686 10686 10686 10686 10686 10686 10686 10687 10688 10689 10689 10689 10688 10688 10687 10687 10687 10687 10687 10686 10686 10686 10686 10686 10686 10685 10685 10684 10684 10683 10682 10681 10681 10680 10680 10679 10679 10678 10678 10678 10677 10677 10677 10677 10677 10677 10677 10677 10677
10652 10655 10658 10660 10663 10668 10671 10674 10677 10677 10674 10672 10670 10667 10667 10669 10670 10671 10671 10671 10671 10673 10674 10674 10675 10676 10676 10677 10677 10678 10680 10680 10681 10682 10682 10682 10682 10682 10682 10682 10682 10682 10683 10684 10684 10685 10686 10686 10685 10685 10684 10683 10683 10683 10684 10683 10683 10683 10683 10682 10682 10682 10682 10681 10681 10680 10680 10679 10678 10677 10677 10677 10676 10675 10675 10674 10674 10674 10673 10673 10673 10673 10672 10672 10671
10647 10650 10653 10656 10659 10663 10667 10670 10675 10675 10669 10666 10665 10663 10663 10665 10667 10667 10667 10667 10668 10670 10670 10671 10671 10672 10672 10673 10673 10674 10676 10677 10677 10678 10678 10678 10678 10678 10678 10678 10679 10679 10679 10680 10681 10682 10682 10682 10682 10681 10681 10680 10680 10680 10680 10681 10680 10680 10680 10679 10679 10679 10678 10678 10678 10677 10676 10676 10675 10674 10674 10674 10673 10673 10672 10671 10671 10670 10670 10669 10669 10668 10668 10667 10667
10642 10647 10650 10654 10656 10660 10664 10666 10671 10672 10665 10662 10661 10660 10660 10661 10662 10663 10663 10663 10665 10666 10666 10666 10667 10667 10667 10668 10669 10670 10671 10672 10673 10673 10674 10674 10674 10674 10674 10675 10675 10675 10676 10677 10678 10678 10679 10679 10679 10678 10678 10677 10677 10677 10677 10677 10677 10677 10677 10676 10676 10675 10675 10674 10674 10673 10673 10672 10672 10671 10671 10671 10670 10670 10669 10668 10667 10667 10666 10665 10665 10664 10664 10663 10662
10639 10644 10648 10653 10656 10657 10660 10662 10667 10669 10664 10659 10658 10657 10658 10658 10658 10659 10659 10660 10661 10661 10661 10662 10662 10662 10663 10664 10665 10666 10667 10668 10668 10669 10670 10670 10670 10671 10671 10672 10672 10672 10673 10673 10674 10675 10676 10676 10675 10674 10674 10674 10674 10674 10674 10674 10674 10674 10674 10673 10673 10672 10671 10671 10670 10669 10669 10669 10668 10668 10668 10667 10667 10667 10666 10665 10664 10663 10662 10661 10661 10660 10660 10659 10659